EDT,Max TemperatureF,Mean TemperatureF,Min TemperatureF,Max Dew PointF,MeanDew PointF,Min DewpointF,Max Humidity, Mean Humidity, Min Humidity, Max Sea Level PressureIn, Mean Sea Level PressureIn, Min Sea Level PressureIn, Max VisibilityMiles, Mean VisibilityMiles, Min VisibilityMiles, Max Wind SpeedMPH, Mean Wind SpeedMPH, Max Gust SpeedMPH,PrecipitationIn, CloudCover, Events, WindDirDegrees
2012-10-1,91,81,71,81,76,70,100,84,52,29.83,29.78,29.73,10,7,0,14,4,21,0.00,3,Thunderstorm,156
2012-10-2,87,82,78,79,77,73,94,87,70,30.02,29.87,29.77,10,10,5,15,5,20,0.00,3,Thunderstorm,200
2012-10-3,86,80,73,77,73,70,100,85,66,30.20,30.11,30.02,10,9,5,6,2,,0.00,5,Thunderstorm,255
2012-10-4,86,80,73,79,75,72,100,91,70,30.24,30.20,30.16,10,7,0,5,0,,0.00,5,Thunderstorm,344
2012-10-5,87,81,75,77,75,73,100,86,66,30.19,30.10,30.03,10,8,0,13,3,16,0.00,2,Thunderstorm,41
2012-10-6,87,80,73,79,74,72,100,86,62,30.03,29.98,29.91,10,7,0,10,1,,0.00,4,Thunderstorm,75
2012-10-7,91,81,71,77,74,68,100,82,52,30.04,29.98,29.94,10,7,0,17,2,24,0.00,4,Thunderstorm,124
2012-10-8,82,73,64,77,71,63,100,93,83,30.10,30.03,29.98,10,8,0,15,4,17,0.00,7,Thunderstorm,20
2012-10-9,69,64,60,63,61,59,100,92,73,30.16,30.11,30.07,10,8,0,8,4,,0.00,7,,353
2012-10-10,80,70,59,68,63,57,100,86,54,30.17,30.12,30.06,10,5,0,9,2,,0.00,4,,297
2012-10-11,80,70,60,66,62,57,100,80,45,30.25,30.20,30.14,10,8,0,13,2,16,0.00,0,,15
2012-10-12,84,72,60,68,63,59,100,75,48,30.25,30.21,30.16,10,8,0,7,1,,0.00,1,,99
2012-10-13,82,73,64,72,67,63,100,81,54,30.30,30.25,30.20,10,9,0,20,5,25,0.00,4,,50
2012-10-14,87,78,69,73,70,66,100,78,51,30.23,30.14,30.05,10,10,7,14,4,21,0.00,6,,88
2012-10-15,89,79,69,73,71,68,100,82,52,30.04,29.92,29.81,10,10,2,13,2,16,0.00,3,,247
2012-10-16,77,68,60,66,58,54,94,72,47,29.95,29.91,29.88,10,10,10,14,4,21,0.00,0,,24
2012-10-17,78,68,57,68,63,55,100,85,61,29.98,29.92,29.88,10,9,1,10,1,,0.00,1,,46
2012-10-18,82,73,64,75,69,64,100,89,58,29.90,29.85,29.81,10,8,0,7,1,,0.00,4,,184
2012-10-19,80,71,62,72,62,46,100,73,30,29.90,29.85,29.80,10,10,7,9,2,,0.00,2,Thunderstorm,286
2012-10-20,80,66,53,61,54,45,100,71,28,29.98,29.91,29.86,10,9,0,12,2,20,0.00,0,,276
2012-10-21,80,66,53,63,56,50,100,76,37,30.14,30.07,29.98,10,9,1,14,2,21,0.00,0,,23
2012-10-22,78,68,57,63,59,55,100,79,50,30.21,30.16,30.11,10,8,0,16,3,20,0.00,0,,48
2012-10-23,82,70,59,70,65,59,100,84,58,30.17,30.13,30.10,10,10,1,15,4,21,0.00,1,,42
2012-10-24,86,76,66,73,69,64,100,83,51,30.14,30.09,30.05,10,9,1,17,5,22,0.00,1,,36
2012-10-25,86,80,73,75,72,70,100,82,58,30.05,30.00,29.96,10,10,7,20,8,25,0.00,2,,37
2012-10-26,80,76,71,73,69,61,94,77,61,29.95,29.86,29.76,10,10,10,17,10,26,0.00,3,,18
2012-10-27,75,72,69,64,64,63,83,75,69,29.75,29.65,29.60,10,10,10,15,9,25,0.00,4,,331
2012-10-28,78,69,60,63,58,50,88,68,44,29.74,29.68,29.63,10,10,10,15,7,25,0.00,1,,286
2012-10-29,68,59,50,50,41,34,76,55,30,29.80,29.73,29.66,10,10,10,20,11,31,0.00,0,,284
2012-10-30,66,56,46,36,32,28,62,43,24,29.87,29.76,29.70,10,10,10,23,11,32,0.00,0,,259
2012-10-31,71,58,46,39,37,34,71,50,27,29.96,29.91,29.86,10,10,10,21,10,29,0.00,0,,257